Change the Weather History Date:

Sunday, September 14, 2014

  Actual Average Record
Temperature  
Mean Temperature 47 °F 59 °F  
Max Temperature 64 °F 74 °F 98 °F (1948)
Min Temperature 30 °F 44 °F 24 °F (1993)
Degree Days  
Heating Degree Days 18 7  
Month to date heating degree days 164 71  
Since 1 July heating degree days 213 128  
Cooling Degree Days 0 1  
Month to date cooling degree days 12 32  
Year to date cooling degree days 367 492  
Moisture  
Dew Point 37 °F    
Average Humidity 72    
Maximum Humidity 100    
Minimum Humidity 43    
Precipitation  
Precipitation 0.00 in 0.03 in 1.46 in (1982)
Month to date precipitation 0.62 0.50  
Year to date precipitation 15.88 10.98  
Sea Level Pressure  
Sea Level Pressure 30.12 in    
Wind  
Wind Speed 6 mph (South)    
Max Wind Speed 23 mph    
Max Gust Speed 29 mph    
Visibility 10 miles    
Events      
T = Trace of Precipitation, MM = Missing Value Source: NWS Daily Summary

Daily Weather History Graph

Daily Weather History Graph

Search for Another Location

Airport or City:

Trip Planner

Search our weather history database for the weather conditions in past years. The results will help you decide how hot, cold, wet, or windy it might be!

Date:

Astronomy

Sep. 14, 2014 Rise Set
Actual Time 6:40 AM MDT 7:14 PM MDT
Civil Twilight 6:10 AM MDT 7:43 PM MDT
Nautical Twilight 5:36 AM MDT 8:18 PM MDT
Astronomical Twilight 5:00 AM MDT 8:53 PM MDT
Moon 10:56 PM MDT (9/14) 1:01 PM MDT (9/14)
Length of Visible Light 13h 32m
Length of Day
12h 34m
Waning Gibbous, 63% of the Moon is Illuminated
Sep 14
Waning Gibbous
Sep 15
Last Quarter
Sep 24
New
Oct 1
First Quarter
Oct 8
Full

Hourly Weather History & Observations

Time (MDT) Temp. Windchill Dew Point Humidity Pressure Visibility Wind Dir Wind Speed Gust Speed Precip Events Conditions
12:53 AM 32.0 °F - 30.9 °F 96% 30.17 in 10.0 mi Calm Calm - N/A   Clear
1:53 AM 30.9 °F 26.2 °F 30.0 °F 96% 30.16 in 10.0 mi SSW 4.6 mph - N/A   Clear
2:53 AM 30.9 °F - 30.0 °F 96% 30.13 in 10.0 mi Calm Calm - N/A   Clear
3:53 AM 32.0 °F - 30.0 °F 92% 30.12 in 10.0 mi Calm Calm - N/A   Clear
4:53 AM 30.9 °F - 28.9 °F 92% 30.10 in 10.0 mi Calm Calm - N/A   Clear
5:53 AM 30.9 °F - 28.9 °F 92% 30.10 in 10.0 mi Calm Calm - N/A   Clear
6:53 AM 37.0 °F 31.6 °F 34.0 °F 89% 30.09 in 10.0 mi South 6.9 mph - N/A   Clear
7:53 AM 39.9 °F 31.8 °F 36.0 °F 86% 30.11 in 10.0 mi SSE 15.0 mph - N/A   Clear
8:53 AM 44.1 °F 35.9 °F 37.0 °F 76% 30.09 in 10.0 mi SSE 19.6 mph 27.6 mph N/A   Clear
9:53 AM 48.0 °F - 37.9 °F 68% 30.12 in 10.0 mi SE 18.4 mph - N/A   Clear
10:53 AM 51.1 °F - 39.0 °F 63% 30.11 in 10.0 mi SSE 12.7 mph 18.4 mph N/A   Clear
11:53 AM 55.0 °F - 39.9 °F 57% 30.09 in 10.0 mi SSE 11.5 mph - N/A   Clear
12:53 PM 57.0 °F - 41.0 °F 55% 30.08 in 10.0 mi Variable 3.5 mph - N/A   Clear
1:53 PM 57.9 °F - 39.9 °F 51% 30.07 in 10.0 mi Variable 3.5 mph - N/A   Clear
2:53 PM 60.1 °F - 41.0 °F 49% 30.07 in 10.0 mi NE 4.6 mph - N/A   Clear
3:53 PM 62.1 °F - 41.0 °F 46% 30.06 in 10.0 mi NW 5.8 mph - N/A   Clear
4:53 PM 62.1 °F - 39.9 °F 44% 30.07 in 10.0 mi Calm Calm - N/A   Clear
5:53 PM 62.1 °F - 42.1 °F 48% 30.09 in 10.0 mi NNW 5.8 mph - N/A   Clear
6:53 PM 55.9 °F - 42.1 °F 60% 30.10 in 10.0 mi North 6.9 mph - N/A   Clear
7:53 PM 45.0 °F - 39.9 °F 82% 30.15 in 10.0 mi Calm Calm - N/A   Clear
8:12 PM 45.0 °F - 39.9 °F 82% 30.15 in 10.0 mi Calm Calm - N/A   Partly Cloudy
8:53 PM 44.1 °F - 39.0 °F 82% 30.18 in 10.0 mi Calm Calm - N/A   Clear
9:53 PM 39.9 °F 36.7 °F 37.9 °F 93% 30.20 in 10.0 mi SW 4.6 mph - N/A   Clear
10:53 PM 39.9 °F 36.7 °F 37.0 °F 89% 30.20 in 10.0 mi SSW 4.6 mph - N/A   Clear
11:53 PM 37.9 °F - 36.0 °F 93% 30.22 in 10.0 mi Calm Calm - N/A   Clear